TimeEDT,TemperatureF,Dew PointF,Humidity,Sea Level PressureIn,VisibilityMPH,Wind Direction,Wind SpeedMPH,Gust SpeedMPH,PrecipitationIn,Events,Conditions,WindDirDegrees,DateUTC
12:53 AM,57.9,44.1,60,29.68,10.0,WNW,10.4,-,N/A,,Mostly Cloudy,300,2012-10-29 04:53:00
1:53 AM,54.0,39.9,59,29.68,10.0,NW,11.5,19.6,N/A,,Mostly Cloudy,310,2012-10-29 05:53:00
2:53 AM,52.0,37.0,57,29.68,10.0,NW,10.4,18.4,N/A,,Scattered Clouds,310,2012-10-29 06:53:00
3:53 AM,50.0,36.0,59,29.68,10.0,NW,11.5,18.4,N/A,,Mostly Cloudy,310,2012-10-29 07:53:00
5:53 AM,48.0,35.1,61,29.68,10.0,WNW,8.1,-,N/A,,Clear,300,2012-10-29 09:53:00
6:53 AM,46.9,34.0,61,29.69,10.0,WNW,8.1,-,N/A,,Clear,300,2012-10-29 10:53:00
7:53 AM,46.0,34.0,63,29.69,10.0,WNW,9.2,-,N/A,,Clear,300,2012-10-29 11:53:00
8:53 AM,48.0,34.0,58,29.70,10.0,NW,8.1,-,N/A,,Clear,310,2012-10-29 12:53:00
9:53 AM,51.1,34.0,52,29.69,10.0,NW,12.7,-,N/A,,Clear,320,2012-10-29 13:53:00
10:53 AM,55.0,34.0,45,29.69,10.0,NNW,11.5,20.7,N/A,,Clear,330,2012-10-29 14:53:00
11:53 AM,59.0,33.1,38,29.66,10.0,NNW,10.4,24.2,N/A,,Clear,330,2012-10-29 15:53:00
1:53 PM,62.1,33.1,34,29.61,10.0,WNW,19.6,25.3,N/A,,Partly Cloudy,300,2012-10-29 17:53:00
2:53 PM,62.1,33.1,34,29.58,10.0,WNW,16.1,23.0,N/A,,Partly Cloudy,300,2012-10-29 18:53:00
3:53 PM,62.1,33.1,34,29.57,10.0,NW,15.0,26.5,N/A,,Overcast,310,2012-10-29 19:53:00
4:53 PM,62.1,33.1,34,29.55,10.0,NW,15.0,20.7,N/A,,Overcast,310,2012-10-29 20:53:00
5:53 PM,60.1,33.1,36,29.55,10.0,NW,9.2,19.6,N/A,,Overcast,320,2012-10-29 21:53:00
6:53 PM,57.9,30.9,36,29.57,10.0,NW,12.7,27.6,N/A,,Overcast,320,2012-10-29 22:53:00
7:53 PM,54.0,32.0,43,29.60,10.0,NW,10.4,18.4,N/A,,Clear,320,2012-10-29 23:53:00
8:53 PM,52.0,32.0,47,29.60,10.0,NW,9.2,-,N/A,,Clear,310,2012-10-30 00:53:00
9:53 PM,53.1,32.0,45,29.62,10.0,WNW,13.8,17.3,N/A,,Overcast,290,2012-10-30 01:53:00
10:53 PM,51.1,28.9,43,29.61,10.0,WNW,11.5,23.0,N/A,,Scattered Clouds,290,2012-10-30 02:53:00
11:53 PM,48.9,30.0,48,29.60,10.0,West,8.1,-,N/A,,Clear,270,2012-10-30 03:53:00